Theta_e
323 325 325 324 325 325 325 324 323 324 329 332 334 337 338 339 339 340 340 337 334 332 331 331 332 333 335 335 334 330 330 332 336 336 334 332 331 330 329 328 328 327 328
324 325 325 324 324 325 325 324 323 324 328 332 334 335 337 338 339 341 340 334 332 331 331 332 333 334 335 335 334 332 331 332 335 335 331 328 326 326 327 328 328 326 327
324 324 323 325 328 327 325 323 322 322 325 328 332 334 338 338 339 340 339 333 332 332 334 337 338 338 338 338 336 333 332 332 334 334 332 324 325 326 325 325 325 325 324
324 324 328 330 328 325 324 323 322 322 324 327 331 334 335 336 338 340 340 335 335 336 336 336 336 336 336 336 336 336 336 335 336 333 331 329 327 324 322 323 321 322 321
324 327 331 329 328 328 326 324 325 326 328 331 334 334 336 338 340 340 340 338 337 335 335 335 335 336 336 335 337 337 336 334 333 332 331 329 327 325 324 320 318 318 316
325 330 332 330 330 330 330 329 330 331 333 334 336 337 339 340 340 340 338 340 339 338 338 338 336 334 333 335 334 333 334 332 333 332 330 330 329 327 324 321 317 317 313
326 330 329 330 331 333 333 333 334 335 336 337 337 338 338 339 338 338 338 339 338 337 336 336 336 334 330 328 332 331 331 328 331 329 330 329 327 328 326 322 319 313 312
326 327 327 326 329 335 337 337 337 336 335 336 337 338 338 336 335 334 334 335 336 334 333 333 332 331 331 330 327 328 329 328 327 328 328 327 325 323 323 322 320 312 309
327 328 326 322 322 325 330 331 330 329 329 330 333 334 334 335 335 334 333 333 332 331 331 329 330 329 328 327 327 326 327 327 325 326 325 324 323 322 320 320 319 318 310
328 327 324 323 322 322 323 323 323 323 323 322 322 321 321 322 323 325 327 327 323 322 323 323 323 324 324 325 326 325 323 323 322 323 322 321 319 318 318 318 317 317 316
328 325 326 325 323 322 321 322 322 322 322 322 321 321 321 320 320 319 319 319 319 319 319 321 323 322 323 324 323 323 322 321 321 321 320 319 317 316 315 316 315 315 314
326 326 326 326 326 325 323 322 323 323 323 322 322 321 320 319 318 318 318 318 318 318 317 316 316 319 321 321 321 321 320 320 319 319 317 316 315 313 313 314 313 312 314
324 325 326 326 327 326 326 325 324 324 324 324 323 322 322 322 321 321 321 320 318 317 316 317 317 317 317 319 319 319 318 318 317 316 315 315 313 312 314 313 312 311 311
324 324 324 326 326 326 326 325 325 325 325 324 323 321 320 319 319 319 319 319 318 316 315 316 316 315 315 317 317 317 316 316 315 314 313 312 313 311 311 311 311 311 310
319 321 323 323 323 323 324 323 322 323 321 319 318 317 317 316 316 316 316 316 315 316 316 316 315 315 314 315 315 315 315 315 314 313 311 311 311 311 310 310 309 308 308
318 319 320 321 320 321 320 317 315 314 313 312 310 309 308 310 310 311 310 310 311 312 312 312 314 314 314 313 315 314 314 314 312 311 311 310 309 309 308 307 306 306 307
317 317 315 314 312 310 308 306 303 301 300 299 299 299 300 300 299 299 300 301 303 306 309 311 312 312 313 312 313 313 312 312 311 311 310 309 308 308 307 306 305 304 303
314 314 312 307 303 300 299 300 300 300 299 299 298 298 297 297 297 297 297 297 298 299 300 302 304 307 311 312 312 312 311 311 310 310 308 307 306 306 305 304 304 302 300
312 308 305 302 299 299 298 298 298 298 298 299 298 297 298 298 298 298 297 297 297 297 296 297 299 302 302 305 309 309 308 309 308 307 305 304 304 304 303 303 302 298 296
303 304 303 304 303 304 304 303 303 302 299 298 298 298 298 298 298 298 298 298 298 298 298 297 298 300 301 302 305 306 304 304 304 304 303 300 302 302 302 300 298 296 296
310 312 313 313 309 306 301 298 299 299 298 298 298 298 298 298 298 298 298 298 298 298 298 298 297 297 302 303 303 303 301 302 302 301 302 300 299 300 298 297 297 298 298
313 313 310 305 300 298 299 299 298 297 296 296 296 296 296 296 296 296 296 297 298 298 298 298 298 298 298 299 299 300 300 301 301 301 301 300 299 297 295 297 298 297 296
310 302 298 298 299 299 299 297 295 295 295 296 295 295 295 295 295 295 295 295 295 295 296 296 297 298 298 298 298 298 298 301 300 300 300 299 298 295 295 296 297 297 295
300 299 298 299 299 298 297 296 296 295 295 295 295 295 295 294 294 293 294 294 295 295 295 295 296 296 297 298 298 297 297 296 299 300 299 300 297 296 295 294 296 296 295
298 298 298 298 299 298 298 297 295 295 295 295 295 294 294 293 293 293 293 293 293 294 294 294 296 298 298 298 298 298 297 296 299 299 297 296 294 295 293 293 295 294 293
298 298 298 299 298 298 298 296 295 295 294 294 294 293 292 291 291 291 292 292 292 293 293 294 294 296 298 298 298 298 297 297 299 297 296 294 296 295 294 294 295 294 292
Wind_Speed
30 27 22 22 26 27 30 30 28 32 36 37 35 35 33 30 29 24 20 19 19 21 23 24 25 26 27 27 27 27 27 29 29 27 28 27 28 27 26 26 28 20 23
28 23 26 28 30 25 24 30 32 31 35 36 34 32 30 29 28 24 18 17 18 19 21 21 23 23 24 27 28 29 30 31 33 34 29 21 26 26 28 33 34 16 29
22 25 22 15 12 12 14 23 30 31 29 29 30 28 25 25 26 24 18 18 18 17 17 18 20 21 22 25 27 28 30 33 36 37 30 11 14 28 29 31 34 24 36
18 15 7 6 6 3 7 16 20 21 21 21 22 22 21 21 21 18 17 17 14 13 12 16 18 19 21 23 25 26 28 32 34 33 37 29 18 15 13 30 33 33 34
10 9 7 4 2 3 7 12 13 14 15 14 14 14 14 15 13 13 13 16 16 16 19 18 19 19 20 22 23 25 25 24 31 33 31 37 31 23 18 18 26 28 25
10 13 10 7 6 7 9 10 12 12 11 11 10 10 9 9 9 11 12 13 15 16 14 16 16 16 18 21 20 20 21 22 27 26 28 32 36 38 31 23 22 28 28
15 18 14 10 10 10 12 12 13 13 12 11 11 10 10 9 9 10 11 13 15 15 14 16 16 18 17 19 20 18 21 23 23 24 25 30 36 36 34 29 25 29 28
20 20 17 14 12 14 15 15 15 14 13 11 10 10 10 10 10 11 12 13 14 16 17 19 20 21 22 21 21 20 21 21 21 24 25 26 30 31 32 27 23 22 27
22 19 16 16 16 17 17 17 17 16 14 13 11 11 11 12 13 14 15 16 15 16 18 21 22 22 21 21 20 21 19 21 21 23 24 24 23 23 25 25 25 26 30
24 22 19 19 19 18 17 18 18 16 14 12 10 8 6 7 8 9 9 11 11 13 15 17 18 20 19 20 18 18 17 20 19 20 20 20 20 20 20 24 27 28 28
26 24 22 20 18 17 17 17 15 15 15 14 12 10 8 7 6 7 7 8 8 9 11 14 17 17 16 16 17 18 21 19 20 21 21 22 21 22 22 26 34 31 34
23 23 22 23 20 17 16 16 16 16 15 14 11 9 7 5 3 3 3 4 6 8 10 11 13 15 16 16 20 22 20 21 23 24 24 24 24 25 25 27 28 29 35
21 21 20 22 21 19 16 16 17 14 12 10 7 5 3 1 2 4 6 8 8 11 13 14 15 15 14 18 19 20 22 23 24 24 24 26 28 24 27 25 21 25 25
21 23 24 22 20 18 17 15 14 12 10 7 5 3 2 3 5 8 11 12 12 11 11 12 13 15 17 17 21 22 24 25 24 26 27 26 27 27 27 24 24 26 24
20 22 23 22 19 16 14 13 12 11 9 7 4 2 4 6 9 12 14 15 16 17 18 18 18 17 20 21 24 25 25 27 29 28 28 28 28 27 27 27 25 24 24
24 24 23 21 20 19 18 15 13 9 6 2 2 4 6 10 13 17 18 18 20 22 23 23 24 23 24 23 26 29 28 29 29 29 31 30 30 28 28 26 23 24 26
27 23 20 20 20 16 14 11 8 5 3 1 3 6 10 12 15 17 18 19 20 22 23 24 25 25 24 25 27 30 33 32 30 31 32 34 34 32 30 27 26 25 23
31 31 26 21 16 13 9 7 5 5 5 7 9 12 13 14 15 16 18 20 22 24 25 25 25 26 27 27 28 31 35 36 35 34 34 34 33 32 32 31 31 29 26
32 30 25 18 14 10 8 5 2 3 7 13 15 14 14 14 15 16 18 18 21 23 25 27 28 29 30 29 27 30 37 41 40 38 35 34 34 32 34 32 31 29 30
30 26 22 18 16 14 12 11 12 13 12 12 12 14 17 19 21 23 24 23 24 26 26 27 26 28 29 27 24 24 21 28 38 42 40 38 36 33 34 34 31 31 30
20 14 15 18 15 10 7 8 9 10 13 16 17 20 22 24 26 27 28 28 29 30 30 31 30 28 28 27 25 26 23 24 22 37 43 40 39 36 35 33 30 30 28
25 21 17 12 10 11 12 11 12 15 18 20 22 23 23 24 26 29 30 32 33 34 36 35 34 32 27 23 22 23 23 19 22 25 33 43 40 37 37 34 31 29 28
22 20 18 17 15 14 13 12 13 17 21 22 23 24 27 28 28 28 31 33 34 35 37 38 40 38 33 27 23 25 27 25 21 20 19 38 40 38 37 34 33 32 32
25 22 19 17 14 14 14 14 17 20 22 23 24 26 28 29 29 29 29 31 32 33 35 35 36 36 34 32 25 22 26 27 22 30 29 26 40 41 39 38 35 33 31
24 19 17 15 14 15 17 17 19 20 22 24 26 27 29 30 30 30 30 31 31 30 32 34 34 34 36 35 30 26 26 24 21 31 38 26 38 45 43 40 38 36 33
19 16 14 14 15 17 18 20 21 21 23 25 28 29 30 31 30 30 32 31 32 32 32 33 33 37 38 34 32 28 28 17 21 26 34 34 39 47 47 46 42 38 36
Wind_Direction
286 290 290 277 279 274 262 246 234 226 229 234 235 235 231 231 232 235 240 245 240 239 243 249 252 253 254 256 254 253 252 252 249 248 245 246 238 237 241 245 246 231 225
289 296 289 286 288 274 249 233 227 225 227 231 234 234 233 231 233 234 236 235 234 236 242 249 254 255 257 259 259 258 257 256 254 249 237 231 235 231 234 230 214 230 220
291 294 292 280 280 273 240 217 220 225 231 232 229 231 230 231 230 231 230 227 231 238 246 257 262 263 259 261 263 261 261 260 260 255 238 218 211 224 226 222 218 225 222
282 281 266 275 295 295 196 202 215 218 220 220 222 227 229 226 223 228 231 230 229 235 249 254 257 262 264 267 272 272 271 261 259 255 236 235 238 203 214 226 225 218 217
253 233 225 236 224 128 141 163 174 184 191 198 204 211 216 219 221 226 231 226 229 237 239 249 262 263 267 269 276 273 268 280 266 262 257 238 236 232 223 216 221 228 222
221 207 204 198 178 152 146 148 150 154 158 168 178 188 200 213 214 223 230 232 237 243 255 252 258 257 269 271 275 280 272 277 273 262 268 261 249 239 234 220 218 219 206
214 199 195 182 164 161 154 150 147 153 157 165 173 181 191 201 205 219 237 252 257 265 262 256 259 264 272 275 273 268 272 279 269 273 264 268 251 248 245 232 210 200 199
210 198 189 181 172 164 158 155 153 156 158 168 181 190 194 204 213 221 235 255 270 275 278 279 276 271 266 272 260 263 270 277 269 264 259 265 261 248 250 243 229 193 194
201 195 190 176 171 164 165 161 158 159 161 165 174 183 195 208 218 229 237 244 249 259 266 271 272 269 268 268 266 265 265 270 272 262 258 252 249 246 245 246 241 226 199
192 189 182 171 168 165 162 160 157 157 159 159 162 172 187 205 219 231 239 243 251 257 259 271 273 275 271 270 267 264 274 271 267 260 252 242 232 230 231 237 236 231 235
189 184 183 178 169 163 163 164 163 166 164 161 166 167 169 176 191 210 225 240 255 269 278 278 278 277 273 270 266 267 270 263 255 247 240 238 228 228 228 232 239 234 219
189 187 188 185 179 175 168 169 173 173 172 174 174 176 173 176 199 224 266 291 304 307 303 298 294 290 287 277 273 272 260 259 246 243 237 231 237 245 235 231 233 236 228
183 179 180 186 187 183 182 185 185 181 178 177 177 177 170 168 289 310 307 307 310 310 306 301 299 291 278 278 272 265 261 257 246 239 236 249 250 238 229 219 221 219 215
183 180 180 183 187 192 194 188 186 182 184 191 194 202 236 280 296 299 298 293 294 297 305 307 303 311 295 278 273 265 258 246 239 249 253 251 237 239 231 229 213 206 198
177 176 175 177 179 176 168 169 171 169 173 177 189 249 295 304 314 310 302 302 304 302 299 298 300 303 301 285 274 264 253 244 252 262 257 245 240 232 229 208 201 204 203
170 164 159 158 155 153 154 158 159 153 154 186 286 319 324 314 306 298 294 295 297 292 289 288 287 287 282 284 273 262 251 248 257 261 253 239 229 218 216 220 225 226 223
158 151 151 150 146 145 146 149 146 142 141 226 296 291 289 286 290 293 294 295 295 294 294 290 285 277 279 282 276 260 253 256 261 258 247 237 226 223 220 215 211 218 217
163 156 155 150 145 143 146 154 177 206 245 266 279 286 288 287 287 292 293 293 291 290 290 289 289 284 276 279 283 272 261 261 261 256 246 237 229 222 213 209 208 210 206
165 154 149 150 149 159 162 165 199 271 289 295 291 285 287 291 293 301 298 297 297 295 294 288 287 289 291 289 286 284 271 267 264 253 241 233 226 219 212 209 207 206 206
160 152 156 173 191 212 225 249 275 283 279 280 281 281 284 287 289 286 289 291 290 289 293 293 289 285 286 289 287 292 299 297 281 252 242 232 223 220 214 208 203 207 209
174 191 232 242 239 235 244 247 249 262 271 274 278 278 279 280 282 284 283 282 281 282 284 287 290 287 284 284 284 287 288 289 291 270 245 233 223 216 212 208 203 210 212
203 222 212 187 189 207 223 238 260 271 277 278 278 277 278 281 283 283 284 282 280 280 280 282 281 280 283 286 285 287 286 297 275 274 264 252 224 215 210 204 202 202 202
187 174 175 184 197 213 233 255 273 279 279 278 279 279 280 285 288 288 285 283 281 282 282 281 279 277 277 276 279 284 282 267 273 280 286 249 224 214 212 204 202 202 199
170 177 187 196 212 230 248 267 281 282 280 279 280 283 287 288 287 284 283 283 282 283 279 280 279 279 274 271 278 285 290 284 268 263 263 263 229 215 211 205 203 202 201
178 189 199 215 230 246 257 273 285 281 278 278 280 282 285 286 286 285 285 283 282 284 287 284 281 277 273 270 275 275 281 288 272 259 250 244 222 210 209 206 201 198 196
186 199 213 230 245 260 271 281 283 281 281 280 283 288 289 290 291 292 293 290 287 284 282 279 274 269 269 270 267 264 269 272 267 260 245 235 224 216 208 207 199 198 195